Snowfall_Accumulation
0.7 1.6 3.9 0.8 0.8 1.0 1.4 1.7 1.5 0.7 0.1 0.3 0.3 0.1 0.0 0.0 0.0 0.0 0.0 0.0 0.0 0.0 0.0 0.0 0.0 0.0 0.0 0.0 0.0 0.0 0.0 0.0 0.0 0.0 0.0 0.0 0.0 0.0 0.0 0.0 0.0 0.0 0.0 0.0
2.0 3.4 0.3 0.1 0.2 1.0 1.4 2.0 1.3 0.6 0.1 0.5 0.6 0.1 0.0 0.0 0.0 0.0 0.0 0.0 0.0 0.0 0.0 0.0 0.0 0.0 0.0 0.0 0.0 0.0 0.0 0.0 0.0 0.0 0.0 0.0 0.0 0.0 0.0 0.0 0.0 0.0 0.0 0.0
4.7 1.5 0.1 0.2 1.1 2.0 1.6 1.7 1.3 1.4 0.5 0.1 0.6 1.0 0.2 0.0 0.0 0.0 0.0 0.0 0.0 0.0 0.0 0.0 0.0 0.0 0.0 0.0 0.0 0.0 0.0 0.0 0.0 0.0 0.0 0.0 0.0 0.0 0.0 0.0 0.0 0.0 0.0 0.0
1.9 0.3 0.1 0.8 1.2 1.6 2.5 0.4 0.6 1.0 1.6 2.4 2.5 6.1 1.4 0.5 0.0 0.0 0.1 0.0 0.0 0.0 0.0 0.0 0.0 0.0 0.0 0.0 0.0 0.0 0.0 0.0 0.0 0.0 0.0 0.0 0.0 0.0 0.0 0.0 0.0 0.0 0.0 0.0
2.6 0.3 0.5 1.5 0.9 0.7 1.2 0.2 0.3 0.7 2.2 4.1 1.4 4.8 4.1 0.5 0.7 0.3 0.2 0.1 0.0 0.0 0.0 0.0 0.0 0.0 0.0 0.0 0.0 0.0 0.0 0.0 0.0 0.0 0.0 0.0 0.0 0.0 0.0 0.0 0.0 0.0 0.0 0.0
0.8 0.1 0.0 0.6 0.0 0.1 0.2 0.1 0.3 0.7 3.0 7.6 2.3 4.0 4.6 2.5 1.9 1.1 0.8 0.3 0.1 0.0 0.0 0.0 0.0 0.0 0.0 0.0 0.0 0.0 0.0 0.0 0.0 0.0 0.0 0.0 0.0 0.0 0.0 0.0 0.0 0.0 0.0 0.0
8.3 1.2 0.1 0.1 0.9 0.8 0.9 5.7 12.6 12.5 11.5 5.7 1.5 2.5 3.6 0.9 0.7 0.7 0.7 0.4 0.4 0.2 0.0 0.1 0.0 0.0 0.0 0.0 0.0 0.0 0.0 0.0 0.0 0.0 0.0 0.0 0.0 0.0 0.0 0.0 0.0 0.0 0.0 0.0
11.5 10.1 0.7 0.1 0.4 1.4 1.2 3.5 8.6 8.8 5.7 2.4 1.4 2.3 2.1 0.1 0.1 0.1 0.1 0.2 0.2 0.2 0.1 0.0 0.0 0.0 0.0 0.0 0.0 0.0 0.0 0.0 0.0 0.0 0.0 0.0 0.0 0.0 0.0 0.0 0.0 0.0 0.0 0.0
7.3 7.7 0.3 0.0 0.0 0.3 3.0 3.7 2.5 7.0 5.1 3.4 2.1 1.8 0.8 0.1 0.1 0.1 0.0 0.0 0.1 0.1 0.1 0.1 0.0 0.0 0.0 0.0 0.0 0.0 0.0 0.0 0.0 0.0 0.0 0.0 0.0 0.0 0.0 0.0 0.0 0.0 0.0 0.0
3.4 7.6 1.4 0.0 0.1 0.0 0.3 1.2 5.4 10.9 8.7 5.0 2.3 1.6 2.4 1.2 0.7 0.7 0.5 0.1 0.0 0.1 0.1 0.1 0.0 0.0 0.0 0.0 0.0 0.0 0.0 0.0 0.0 0.0 0.0 0.0 0.0 0.0 0.0 0.0 0.0 0.0 0.0 0.0
0.9 6.6 4.8 2.0 3.3 2.9 2.4 4.1 6.6 8.0 6.7 6.0 3.4 2.2 1.5 0.9 0.9 0.8 0.6 0.2 0.1 0.1 0.2 0.0 0.0 0.0 0.0 0.0 0.0 0.0 0.0 0.0 0.0 0.0 0.0 0.0 0.0 0.0 0.0 0.0 0.0 0.0 0.0 0.0
0.8 4.6 6.9 2.7 0.1 0.1 1.2 2.9 4.8 8.3 5.8 4.6 3.9 2.6 0.1 0.1 0.4 0.4 0.2 0.1 0.1 0.1 0.2 0.2 0.1 0.0 0.0 0.0 0.1 0.0 0.0 0.0 0.0 0.0 0.0 0.0 0.0 0.0 0.0 0.0 0.0 0.0 0.0 0.0
0.9 5.5 8.7 3.8 1.4 0.4 3.1 1.8 1.8 4.7 7.8 6.5 5.1 2.7 0.0 0.0 0.2 0.2 0.2 0.2 0.2 0.2 0.2 0.1 0.1 0.1 0.0 0.0 0.0 0.0 0.0 0.0 0.0 0.0 0.0 0.0 0.0 0.0 0.0 0.0 0.0 0.0 0.0 0.0
0.3 5.3 6.0 5.5 4.2 4.0 4.3 2.5 2.2 6.5 11.5 5.8 3.0 2.2 1.1 0.6 0.3 0.2 0.3 0.1 0.2 0.2 0.2 0.2 0.2 0.2 0.1 0.1 0.1 0.1 0.0 0.0 0.1 0.0 0.0 0.0 0.0 0.0 0.0 0.0 0.0 0.0 0.0 0.0
0.2 6.9 5.4 3.1 1.3 2.7 3.3 2.8 2.8 5.3 5.1 5.9 2.6 1.7 1.1 0.8 0.1 0.1 0.1 0.1 0.1 0.1 0.2 0.2 0.2 0.2 0.1 0.1 0.0 0.1 0.1 0.2 0.2 0.0 0.0 0.0 0.0 0.0 0.0 0.0 0.0 0.0 0.0 0.0
0.4 4.5 4.7 3.4 1.3 2.0 3.1 1.5 1.2 1.7 1.3 2.1 2.1 1.8 0.1 0.0 0.0 0.0 0.0 0.0 0.2 0.2 0.2 0.2 0.2 0.4 0.4 0.1 0.1 0.1 0.2 0.2 0.2 0.1 0.0 0.0 0.0 0.0 0.1 0.1 0.0 0.0 0.0 0.0
0.4 2.6 6.2 5.0 1.8 2.7 5.2 0.8 0.8 0.8 0.6 1.1 1.9 0.7 0.1 0.1 0.1 0.1 0.0 0.0 0.1 0.1 0.2 0.3 0.2 0.3 0.3 0.2 0.2 0.1 0.2 0.2 0.2 0.2 0.1 0.1 0.1 0.1 0.1 0.1 0.1 0.0 0.2 0.1
0.3 1.2 4.8 4.5 3.9 5.6 1.3 0.3 0.3 0.5 0.8 0.6 0.5 0.3 0.1 0.2 0.1 0.0 0.0 0.0 0.0 0.0 0.1 0.0 0.0 0.3 0.3 0.3 0.1 0.1 0.1 0.1 0.1 0.1 0.1 0.1 0.1 0.1 0.2 0.1 0.2 0.2 0.4 0.6
0.1 0.5 4.1 4.0 3.2 2.4 0.2 0.2 0.3 0.6 1.0 0.3 0.4 0.2 0.1 0.1 0.1 0.0 0.0 0.0 0.0 0.0 0.0 0.0 0.0 0.1 0.2 0.2 0.3 0.2 0.0 0.0 0.0 0.1 0.1 0.0 0.1 0.1 0.1 0.4 0.4 0.5 0.9 1.4
0.0 0.2 2.3 3.3 3.1 1.8 0.6 0.0 0.0 0.1 1.0 0.1 0.2 0.2 0.2 0.1 0.5 0.4 0.0 0.0 0.0 0.0 0.0 0.0 0.0 0.0 0.0 0.1 0.2 0.3 0.3 0.2 0.1 0.2 0.5 0.1 0.2 0.5 0.5 0.9 1.1 1.3 1.7 2.1
0.8 1.3 2.5 2.4 2.5 0.9 0.2 0.0 0.0 0.5 2.0 0.1 0.0 0.1 0.1 0.2 0.3 0.1 0.0 0.0 0.0 0.0 0.0 0.0 0.0 0.1 0.0 0.0 0.1 0.2 0.4 0.8 1.4 0.7 0.9 0.9 0.5 0.8 1.2 1.1 1.1 1.0 1.2 1.1
0.6 1.0 1.1 1.3 1.9 1.1 0.0 0.1 0.2 0.2 0.1 0.0 0.0 0.0 0.1 0.1 0.0 0.0 0.0 0.0 0.0 0.0 0.0 0.0 0.0 0.1 0.7 0.3 0.6 0.8 1.5 2.0 1.5 1.3 1.9 1.9 1.6 1.2 0.9 1.2 1.1 1.1 1.0 0.8
0.5 0.5 0.7 0.9 0.9 0.1 0.1 0.1 0.0 0.0 0.0 0.0 0.0 0.0 0.0 0.0 0.0 0.0 0.0 0.0 0.0 0.0 0.0 0.0 0.0 0.1 0.4 0.5 0.5 0.6 1.3 1.4 1.4 1.6 1.8 1.6 1.0 0.8 0.8 0.9 0.6 0.5 0.3 0.3
0.3 0.2 0.3 0.4 0.3 0.1 0.1 0.0 0.0 0.0 0.0 0.0 0.0 0.0 0.0 0.0 0.0 0.0 0.0 0.0 0.0 0.0 0.0 0.0 0.1 0.1 0.2 0.3 0.4 0.6 0.6 0.5 0.5 0.7 0.7 0.5 0.3 0.3 0.3 0.2 0.2 0.3 0.3 0.2
0.3 0.2 0.3 0.3 0.1 0.0 0.0 0.1 0.0 0.0 0.0 0.0 0.0 0.0 0.0 0.0 0.0 0.0 0.0 0.0 0.1 0.1 0.0 0.1 0.1 0.1 0.1 0.1 0.3 0.3 0.2 0.1 0.2 0.2 0.1 0.1 0.1 0.1 0.1 0.1 0.1 0.1 0.2 0.3
0.1 0.3 0.4 0.4 0.1 0.1 0.0 0.0 0.0 0.0 0.0 0.0 0.0 0.0 0.0 0.0 0.0 0.0 0.0 0.0 0.0 0.0 0.1 0.1 0.1 0.2 0.1 0.1 0.2 0.2 0.2 0.1 0.2 0.2 0.2 0.2 0.1 0.2 0.2 0.1 0.1 0.1 0.1 0.1